Overview Statistics Trail Chart Weather Telemetry Raw packets
 

This is the latest recevied weather packets stored in our database for station/object K4IR. If no packets are shown the sender has not sent any weather packets the latest 10 day(s).

<< 22 23 24 25 26 27 28 >>
Time Temp. Humidity Pressure Rain* Wind** Luminosity Snow
1788290205 32.22° C 71% 1018.2 hPa 0 mm - 148 W/m² -
1788289603 32.78° C 72% 1018.1 hPa 0 mm - 205 W/m² -
1788289001 32.22° C 69% 1018.1 hPa 0 mm - 678 W/m² -
1788288395 32.22° C 70% 1018.2 hPa 0 mm - 154 W/m² -
1788287792 32.78° C 66% 1018.4 hPa 0 mm - 707 W/m² -
1788287189 33.33° C 55% 1018.5 hPa 0 mm - 437 W/m² -
1788286587 32.78° C 55% 1018.4 hPa 0 mm - 723 W/m² -
1788285987 32.22° C 64% 1018.6 hPa 0 mm - 709 W/m² -
1788285387 32.22° C 58% 1018.6 hPa 0 mm - 739 W/m² -
1788284783 32.78° C 59% 1018.6 hPa 0 mm - 696 W/m² -
1788284179 32.78° C 62% 1018.7 hPa 0 mm - 740 W/m² -
1788283593 32.78° C 65% 1018.6 hPa 0 mm - 737 W/m² -
1788282974 32.22° C 60% 1018.6 hPa 0 mm - 739 W/m² -
1788282373 31.67° C 62% 1018.7 hPa 0 mm - 742 W/m² -
1788281773 31.67° C 63% 1019 hPa 0 mm - 746 W/m² -
1788281169 31.67° C 65% 1018.9 hPa 0 mm - 750 W/m² -
1788280566 31.67° C 67% 1019.2 hPa 0 mm - 762 W/m² -
1788279960 31.67° C 68% 1019.4 hPa 0 mm - 738 W/m² -
1788279358 31.11° C 70% 1019.3 hPa 0 mm - 738 W/m² -
1788278755 30.56° C 71% 1019.3 hPa 0 mm - 732 W/m² -
1788278154 30.56° C 71% 1019.4 hPa 0 mm - 703 W/m² -
1788277550 30.56° C 74% 1019.5 hPa 0 mm - 700 W/m² -
1788276946 30° C 70% 1019.4 hPa 0 mm - 120 W/m² -
1788276340 30° C 75% 1019.4 hPa 0 mm - 68 W/m² -
1788275735 29.44° C 77% 1019.4 hPa 0 mm - 66 W/m² -

* Rain latest hour (hover to see other rain measurements)
** Current wind speed in m/s (hover to see current wind gust speed)